CAPE
4 6 6 4 1 0 0 1 2 2 1 1 1 0 1 2 2 3 3 3 2 3 2 2 1 1 0 0 0 0 230 0 0 0 0 0 0 0 0 29 125 123 14 8 28 61 71
6 6 6 8 6 2 4 4 4 1 1 2 1 0 0 1 1 1 2 2 2 3 2 2 1 0 0 0 0 0 0 0 0 0 0 0 0 0 0 12 126 82 53 14 23 45 84
8 10 13 4 9 5 5 3 3 3 1 0 0 0 0 0 0 1 1 1 1 2 2 2 1 0 0 0 0 0 0 0 0 0 0 0 0 0 0 38 231 134 83 18 134 137 79
12 10 7 7 2 0 0 0 1 4 1 0 0 0 0 0 0 1 1 1 1 1 1 1 0 0 0 0 0 0 0 0 0 0 0 0 0 0 0 59 71 51 61 64 80 38 79
5 10 8 6 2 0 0 0 0 1 1 0 0 0 0 1 2 2 3 2 0 0 1 0 0 0 0 0 0 0 0 0 0 0 0 0 0 0 0 2 77 50 62 9 47 13 111
1 5 2 2 6 1 1 0 1 0 0 0 0 0 2 3 0 0 0 0 0 0 0 0 0 0 0 0 0 0 0 0 0 0 0 0 0 0 0 0 0 68 74 21 64 45 116
2 2 2 1 8 4 0 0 0 0 1 0 0 2 0 0 0 0 0 0 0 0 0 0 0 0 0 0 0 0 0 0 0 0 0 0 0 0 0 0 30 92 73 62 50 59 76
4 2 10 1 0 0 0 0 0 0 0 0 1 2 3 0 0 1 0 0 0 0 0 0 0 0 0 0 0 0 0 0 0 0 0 0 0 0 0 7 169 113 102 56 68 122 111
2 2 5 1 3 2 1 0 0 0 0 1 1 3 1 0 1 0 0 0 0 0 0 0 0 0 0 0 0 0 0 0 0 0 0 0 0 0 215 226 205 130 120 44 64 5 16
8 6 3 4 3 2 1 1 0 0 0 0 1 4 0 1 0 0 0 0 0 0 0 0 0 0 0 0 0 0 0 0 0 0 0 0 0 0 308 156 131 203 132 59 36 8 0
8 6 5 4 3 2 1 0 1 0 0 0 1 2 0 0 0 0 0 0 0 0 0 0 0 0 0 0 0 0 0 0 0 0 0 0 0 0 0 318 132 74 143 50 3 17 0
9 9 7 4 3 2 1 0 0 0 0 0 0 1 0 0 0 0 0 0 0 0 0 0 0 0 0 0 0 0 0 0 0 0 0 0 0 0 0 20 119 214 72 23 6 0 0
7 8 7 5 2 1 1 0 0 0 0 0 0 0 0 0 0 0 0 0 0 0 0 0 0 0 0 0 0 0 0 0 0 0 0 0 0 420 356 312 291 188 52 29 19 15 0
5 5 4 3 2 0 1 1 0 0 0 0 0 0 0 0 0 0 0 0 0 0 0 0 0 0 0 0 0 0 0 0 0 0 0 0 385 578 429 286 302 114 38 36 2 20 10
5 4 3 2 1 1 1 0 0 0 0 0 0 0 0 0 0 0 0 0 0 0 0 0 0 0 0 0 0 0 0 0 0 0 0 0 0 0 538 450 300 305 118 8 3 4 15
5 4 3 2 1 1 1 0 0 0 0 0 0 0 0 0 0 0 0 0 0 0 0 0 0 0 0 0 0 0 0 14 1 0 0 0 0 0 19 560 355 213 88 85 6 42 22
3 5 6 4 2 2 1 0 0 0 0 0 0 0 0 0 0 0 0 0 0 0 0 0 0 0 0 0 0 0 3 2 0 0 0 0 0 1 0 16 391 0 1 0 0 0 3
2 4 2 6 4 3 2 0 0 0 0 0 0 0 0 0 0 0 0 0 0 0 0 0 0 0 0 0 0 0 0 1 0 0 0 0 0 0 0 0 0 0 0 0 0 0 0
1 1 0 1 2 6 3 0 0 0 0 0 0 0 0 0 0 0 0 0 0 0 0 0 0 0 0 0 0 1 0 0 0 0 0 0 0 0 0 1 0 1 0 0 0 0 0
0 2 0 0 0 0 4 0 0 0 0 0 0 0 0 0 0 0 0 0 0 0 0 0 0 0 0 0 0 0 0 3 0 0 0 26 0 0 0 0 0 0 0 0 0 0 0
0 0 1 1 1 0 1 1 0 0 0 0 0 0 0 0 0 0 0 0 0 0 0 0 0 0 0 0 0 0 0 0 0 18 0 0 0 0 0 0 0 0 207 190 65 5 0
0 0 1 2 1 1 3 1 0 0 0 0 0 0 0 0 0 0 0 0 0 0 0 0 0 0 0 0 0 0 0 0 0 0 0 0 0 0 0 0 0 332 237 165 210 321 307
0 0 1 1 1 1 1 1 1 0 0 0 0 0 0 0 0 0 0 0 0 0 0 0 0 0 0 0 0 0 0 0 0 0 0 0 0 0 0 0 8 0 89 225 244 329 199
1 0 0 0 1 1 3 1 2 2 0 0 0 0 0 0 0 0 0 0 0 0 0 0 0 0 0 0 0 0 0 0 0 0 0 0 0 0 0 0 1 0 3 261 251 182 197
2 3 1 0 0 1 1 1 2 3 2 0 0 0 0 0 2 0 1 0 0 0 0 0 0 0 0 0 0 0 0 0 0 0 0 0 0 0 0 0 0 10 0 0 4 213 157
1 4 1 1 1 1 2 2 4 4 3 0 0 0 0 0 0 3 3 0 0 0 0 0 0 0 0 0 0 0 0 0 4 0 0 0 0 0 0 19 20 10 0 0 0 207 118
1 5 2 1 1 1 3 1 4 3 4 0 0 0 0 0 0 2 2 0 0 0 0 0 0 0 0 0 0 0 9 1 0 0 0 0 0 0 0 0 1 70 0 2 22 0 209
4 3 1 0 0 2 1 3 7 9 8 0 0 0 0 0 0 1 0 0 0 0 0 0 0 0 0 0 0 1 0 1 0 0 0 0 0 0 0 1 6 5 20 49 0 0 313
4 4 1 0 0 1 3 4 5 11 8 1 0 0 0 0 0 0 0 0 0 0 0 0 0 0 0 0 0 0 24 0 0 2 0 0 0 0 0 0 0 0 1 0 0 233 384
CIN
-1 -1 -1 0 0 0 0 0 0 0 0 0 0 0 0 0 0 0 0 0 0 0 0 0 0 0 0 0 0 0 -329 0 0 0 0 0 0 0 0 -43 -45 -62 -123 -113 -104 -112 -165
0 0 0 0 0 0 0 0 0 0 0 0 0 0 0 0 0 0 0 0 0 0 0 0 0 0 0 0 0 0 0 0 0 0 0 0 0 0 0 -32 -24 -84 -78 -44 -72 -85 -115
0 0 -1 0 -1 0 0 0 0 0 0 0 0 0 0 0 0 0 0 0 0 0 0 0 0 0 0 0 0 0 0 0 0 0 0 0 0 0 0 -12 -64 -85 -8 -5 0 -3 -64
0 -1 0 0 0 0 0 0 0 0 0 0 0 0 0 0 0 0 0 0 0 0 0 0 0 0 0 0 0 0 0 0 0 0 0 0 0 0 0 -36 -98 -58 -14 -2 -1 -4 -38
0 -1 0 0 0 0 0 0 0 0 0 0 0 0 0 0 0 0 0 0 0 0 0 0 0 0 0 0 0 0 0 0 0 0 0 0 0 0 0 -12 -66 -88 -9 -41 -2 -86 -8
0 0 0 0 0 0 0 0 0 0 0 0 0 0 0 0 0 0 0 0 0 0 0 0 0 0 0 0 0 0 0 0 0 0 0 0 0 0 0 0 0 -89 -27 -4 0 -15 0
0 0 0 0 0 -1 0 0 0 0 0 0 0 0 0 0 0 0 0 0 0 0 0 0 0 0 0 0 0 0 0 0 0 0 0 0 0 0 0 0 -36 -55 -41 -11 -5 -35 0
0 0 0 0 0 0 0 0 0 0 0 0 0 0 0 0 0 0 0 0 0 0 0 0 0 0 0 0 0 0 0 0 0 0 0 0 0 0 0 -31 -77 -109 -90 -46 -11 -6 -2
0 0 -1 0 0 0 0 0 0 0 0 0 0 0 0 0 0 0 0 0 0 0 0 0 0 0 0 0 0 0 0 0 0 0 0 0 0 0 -46 -51 -77 -75 -90 -155 -69 -29 -29
0 0 0 0 0 0 0 0 0 0 0 0 0 0 0 0 0 0 0 0 0 0 0 0 0 0 0 0 0 0 0 0 0 0 0 0 0 0 -50 -82 -101 -69 -81 -113 -117 -97 0
0 0 0 0 0 0 0 0 0 0 0 0 0 0 0 0 0 0 0 0 0 0 0 0 0 0 0 0 0 0 0 0 0 0 0 0 0 0 0 -109 -129 -78 -94 -98 -96 -76 -39
0 0 0 0 0 0 0 0 0 0 0 0 0 0 0 0 0 0 0 0 0 0 0 0 0 0 0 0 0 0 0 0 0 0 0 0 0 0 0 -96 -95 -80 -124 -109 -122 0 -4
0 0 0 0 0 0 0 0 0 0 0 0 0 0 0 0 0 0 0 0 0 0 0 0 0 0 0 0 0 0 0 0 0 0 0 0 0 -142 -172 -160 -82 -104 -124 -91 -30 -4 0
0 0 0 0 0 0 0 0 0 0 0 0 0 0 0 0 0 0 0 0 0 0 0 0 0 0 0 0 0 0 0 0 0 0 0 0 -40 -98 -125 -196 -186 -174 -138 -88 -13 -8 -21
0 0 0 0 0 0 0 0 0 0 0 0 0 0 0 0 0 0 0 0 0 0 0 0 0 0 0 0 0 0 0 -1 0 0 0 0 0 0 -83 -187 -160 -103 -102 -193 -67 -108 -46
0 0 0 0 0 0 0 0 0 0 0 0 0 0 0 0 0 0 0 0 0 0 0 0 0 0 0 0 0 -26 0 -59 -18 0 0 0 0 0 -52 -103 -136 -140 -187 -69 -32 -32 -39
0 0 0 0 0 0 0 0 0 0 0 0 0 0 0 0 0 0 0 0 0 0 0 0 0 0 0 0 0 0 -30 -17 0 0 0 0 0 -7 0 -9 -46 0 -23 0 -24 0 -49
0 0 0 0 0 0 0 0 0 0 0 0 0 0 0 0 0 0 0 0 0 0 0 0 0 0 0 0 0 0 0 -15 0 0 0 0 0 0 -4 0 0 0 0 0 0 0 0
0 0 0 0 0 0 0 0 0 0 0 0 0 0 0 0 0 0 0 0 0 0 0 0 0 0 0 0 0 -90 0 0 0 0 0 0 0 -28 -17 -18 0 -109 0 0 0 0 0
0 0 0 0 0 0 0 0 0 0 0 0 0 0 0 0 0 0 0 0 0 0 0 0 0 0 0 0 0 0 0 -85 0 0 0 -121 0 0 0 0 0 0 0 0 0 0 0
0 0 0 0 0 0 0 0 0 0 0 0 0 0 0 0 0 0 0 0 0 0 0 0 0 0 0 0 0 0 0 0 0 -36 0 0 0 0 0 0 0 0 -83 -119 -120 -193 0
0 0 0 0 0 0 0 0 0 0 0 0 0 0 0 0 0 0 0 0 0 0 0 0 0 0 0 0 0 0 0 0 0 0 0 0 0 0 0 0 -1 -48 -78 -135 -150 -138 -143
0 0 -1 0 0 0 0 0 -3 0 0 0 0 0 0 0 0 0 0 0 0 0 0 0 0 0 0 0 0 0 0 0 0 0 0 0 0 0 0 0 -15 0 -87 -104 -127 -110 -182
0 0 0 0 0 0 0 0 -2 -2 0 0 0 0 0 0 -12 0 0 0 0 0 0 0 0 0 0 0 0 0 0 0 0 0 0 0 0 0 0 -11 -8 0 -9 -76 -115 -119 -147
0 0 0 0 0 0 0 0 -1 -5 -1 0 0 0 0 0 -237 0 -96 0 0 0 0 0 0 0 0 0 0 0 0 0 0 0 0 0 0 0 0 0 0 -132 0 0 -10 -104 -148
0 0 0 0 0 -1 0 0 0 -3 -2 0 0 0 0 0 0 -177 -169 0 0 0 0 0 0 0 0 0 0 0 0 0 -82 0 0 0 0 0 0 -72 -39 -158 0 0 0 -51 -137
0 0 0 0 0 0 0 0 0 -1 -3 0 0 0 0 0 0 -75 -66 0 0 0 0 0 0 0 0 0 0 0 -83 -22 0 0 0 0 0 0 0 -19 -68 -202 0 -242 -64 -3 -142
-2 0 0 0 0 0 0 0 0 0 0 0 0 0 0 0 0 -82 -17 0 0 0 0 0 0 0 0 0 0 -22 0 -20 0 0 0 0 0 0 0 -90 -78 -143 -273 -120 0 0 -165
-1 0 0 0 0 0 0 0 0 -1 0 0 0 0 0 0 0 0 0 0 0 0 0 0 0 0 0 0 0 0 -134 0 0 -59 0 0 0 0 0 0 0 0 -309 0 0 -273 -151
Wind_Speed
15 16 15 13 13 13 13 13 13 12 12 12 12 12 12 12 12 12 11 11 11 10 9 9 9 10 4 2 8 3 7 12 6 6 5 5 4 3 2 2 6 3 8 7 3 7 6
13 13 13 12 12 14 14 14 14 13 13 13 12 12 12 13 13 13 13 11 11 10 9 7 7 8 2 2 3 5 8 8 4 4 5 5 6 3 3 5 2 6 6 4 0 4 9
14 13 13 14 13 14 15 15 15 15 14 14 13 13 13 13 13 14 14 13 11 10 7 6 5 3 1 10 4 6 8 5 2 5 4 2 3 4 3 1 4 14 7 7 6 3 6
13 14 14 14 15 15 15 15 16 16 15 14 15 14 14 14 14 15 15 15 13 8 5 3 2 1 7 4 2 3 4 2 3 2 2 4 3 1 2 4 5 3 6 3 7 8 6
15 14 14 14 15 16 15 15 16 16 15 14 14 14 15 15 15 16 16 18 12 6 2 3 1 1 9 2 2 6 7 2 4 3 2 5 4 5 1 4 4 6 6 4 2 6 6
16 16 16 16 14 15 15 15 15 14 15 14 14 14 15 15 16 17 21 13 7 5 2 4 4 3 4 4 3 4 4 5 2 4 1 2 2 3 3 5 2 4 7 4 3 3 3
17 17 17 17 15 13 13 13 14 14 15 15 15 15 16 17 16 16 10 1 5 3 1 6 4 3 7 6 2 3 6 5 2 5 3 1 1 4 5 4 1 5 9 6 2 6 1
16 16 14 15 15 15 15 15 15 15 15 15 15 16 17 17 16 13 2 4 4 2 9 8 6 6 7 1 3 2 5 4 4 5 0 5 4 5 2 6 11 8 10 6 3 2 2
17 16 15 16 16 16 16 16 16 15 15 15 15 14 16 17 16 1 1 5 2 4 2 8 5 4 5 6 3 2 7 3 3 4 2 4 4 7 5 10 9 2 5 8 6 4 2
16 15 15 16 16 16 16 16 16 17 18 17 16 15 17 19 2 2 5 2 5 5 6 7 4 5 2 3 2 5 6 4 3 8 4 4 5 6 9 5 6 5 1 7 12 5 2
16 16 15 15 16 16 16 16 17 19 19 18 16 15 12 7 3 1 4 7 5 4 5 3 3 0 3 5 1 3 3 4 4 3 4 8 2 4 6 11 6 3 11 9 4 4 1
16 17 17 16 16 17 17 17 18 20 21 20 16 12 9 1 1 7 9 7 4 7 3 6 3 0 2 2 2 2 3 4 2 2 1 9 5 7 7 4 7 14 11 5 3 4 3
17 17 17 17 17 17 17 18 19 21 23 22 16 9 4 2 3 4 6 5 6 5 5 6 3 1 1 3 2 3 4 2 3 3 3 5 3 4 14 15 5 6 4 3 4 3 4
16 17 17 18 17 17 18 20 21 23 23 23 19 4 8 6 1 6 4 6 8 3 4 5 4 3 4 7 4 2 3 1 1 3 1 1 4 5 8 7 12 9 5 7 3 2 3
16 16 17 18 18 18 19 21 22 24 25 24 11 1 2 4 7 2 7 6 5 4 3 4 5 7 5 4 1 3 1 4 1 4 6 3 5 5 6 3 13 6 4 2 8 2 0
15 16 17 18 18 19 20 21 23 26 28 21 2 3 4 4 6 6 6 3 4 5 3 4 3 3 2 5 7 5 2 3 3 2 3 2 1 4 2 7 7 6 7 3 2 4 4
15 16 17 17 18 19 20 21 22 25 29 13 3 5 3 5 4 6 3 6 5 4 3 4 2 4 1 3 2 3 3 3 4 6 5 1 3 4 2 2 8 2 2 4 5 5 5
14 15 16 17 17 19 20 21 22 21 27 9 2 3 3 1 5 1 2 6 6 2 4 5 4 3 4 4 5 5 3 4 7 1 3 3 4 1 4 5 4 7 3 4 6 3 1
13 15 18 18 18 18 19 20 21 19 14 3 2 3 4 4 1 3 6 5 3 2 1 2 5 4 2 4 3 3 5 7 6 1 0 2 3 3 9 9 6 6 2 0 4 3 3
12 15 17 17 18 19 19 19 20 20 17 3 2 4 6 5 1 3 3 4 3 3 5 6 2 5 4 7 5 4 6 4 8 5 5 7 2 6 7 6 3 4 5 2 5 5 2
11 13 15 15 17 18 19 19 20 20 19 2 2 3 3 3 5 5 2 3 3 3 3 4 5 4 4 4 4 5 4 7 5 8 5 5 2 1 4 7 2 2 3 7 6 3 3
10 10 14 15 16 16 16 19 19 20 14 2 1 2 5 3 4 5 5 1 4 3 3 1 5 3 3 5 5 3 0 0 1 6 4 6 0 5 5 7 6 4 5 8 5 3 6
11 9 12 13 16 14 16 16 16 17 11 3 3 3 3 3 4 3 2 4 6 7 1 6 6 5 3 3 4 2 5 5 3 1 2 3 3 3 3 3 4 6 6 6 2 6 4
13 10 10 10 14 13 13 14 13 12 7 1 3 1 2 4 1 3 4 3 5 4 6 2 5 5 6 4 9 7 7 7 8 8 2 3 3 3 3 5 4 2 4 10 8 5 5
15 11 11 10 10 13 12 13 12 10 7 0 2 1 1 3 3 5 7 2 2 3 1 1 3 4 4 6 5 5 5 4 6 4 7 4 4 3 4 1 4 2 1 3 2 2 3
16 12 11 10 11 12 12 11 10 10 8 1 3 3 1 0 4 3 3 1 3 1 3 3 4 3 8 4 5 3 2 1 4 8 3 4 6 4 2 5 7 4 4 2 3 1 3
15 12 10 9 10 12 12 11 10 9 8 1 4 3 2 2 5 3 1 2 3 3 2 4 5 4 4 3 4 3 3 2 2 1 3 4 4 3 2 2 5 6 5 1 5 7 3
13 12 10 9 10 11 12 10 11 9 8 2 5 3 2 2 7 4 1 2 2 3 4 4 5 5 4 4 4 3 3 5 1 3 3 4 4 3 1 3 6 3 2 6 5 4 4
13 12 9 8 9 11 11 10 11 8 6 1 3 2 1 3 7 3 8 12 8 7 7 1 6 4 5 5 1 3 2 2 3 3 2 3 6 4 8 7 4 3 2 2 4 4 3
Wind_Direction
20 18 16 17 15 12 1 359 358 354 352 350 345 344 343 338 338 334 331 330 322 317 316 319 322 326 348 326 254 328 106 162 128 138 172 145 129 140 277 232 108 153 164 177 140 330 311
22 17 15 14 14 9 4 2 359 357 356 350 347 342 338 335 334 333 327 324 316 307 307 311 318 321 2 300 286 122 107 133 168 146 172 143 169 204 273 228 148 167 119 163 137 303 296
18 13 14 14 12 8 3 0 358 357 357 352 347 341 336 333 330 327 321 316 312 306 304 304 312 304 24 231 39 128 131 175 213 168 141 199 137 59 348 15 153 122 124 154 124 11 293
16 15 10 10 8 4 0 358 353 354 350 347 342 340 333 330 327 322 316 309 303 289 279 262 266 299 250 243 261 228 176 239 210 189 21 203 172 272 206 109 86 81 53 21 35 333 238
14 14 7 7 4 1 358 356 352 346 340 339 335 334 329 327 327 325 321 311 289 254 233 153 108 100 279 298 191 212 160 195 129 120 227 263 162 199 169 97 55 26 112 69 7 321 285
12 11 9 4 1 359 357 354 350 335 336 335 331 329 328 330 335 333 326 319 99 128 170 190 248 334 276 322 232 154 179 137 131 114 101 136 72 90 40 79 216 156 124 128 176 296 238
11 10 8 6 359 354 351 344 338 339 334 330 327 328 333 332 331 336 349 33 14 8 110 223 220 254 283 289 203 154 157 141 100 52 134 218 121 193 211 176 87 113 105 116 185 254 271
12 9 360 3 354 352 349 344 337 335 330 324 324 332 330 328 325 329 303 92 215 160 314 231 234 269 262 154 299 129 110 132 112 199 225 24 255 217 205 147 123 124 126 132 200 226 231
8 5 4 358 352 350 347 342 334 326 321 320 317 314 327 326 318 359 256 227 218 332 145 299 199 205 224 140 210 242 129 168 143 142 158 146 249 140 147 131 128 209 159 180 139 126 339
356 354 354 352 349 348 344 337 330 323 319 316 314 320 327 325 312 320 264 252 299 185 57 290 295 281 131 111 307 212 179 133 43 195 158 234 253 164 144 173 155 174 231 132 127 128 243
357 352 351 350 347 345 341 336 329 324 318 315 314 326 329 339 290 180 302 301 273 61 53 289 271 145 78 136 262 228 167 55 178 215 104 253 267 160 185 210 139 181 108 112 136 98 200
356 352 351 349 346 344 338 335 331 324 319 316 315 320 327 96 207 244 290 300 67 43 21 331 325 73 30 226 252 74 115 47 174 224 277 240 233 170 210 144 124 125 101 54 108 70 325
355 352 350 347 345 342 338 335 333 328 323 321 317 281 256 310 241 298 312 39 44 85 347 310 294 250 107 295 44 126 136 149 172 37 345 317 354 67 103 90 49 127 113 51 39 347 238
353 351 349 346 345 343 341 338 337 331 328 326 324 256 221 227 325 359 46 52 65 272 273 300 343 60 31 19 341 125 99 269 150 123 181 88 354 190 191 156 173 171 142 139 112 271 263
350 348 349 347 346 346 344 341 340 335 333 333 322 29 246 277 192 151 63 51 199 231 239 348 9 56 353 340 76 73 169 192 230 185 171 149 293 298 184 129 133 230 207 192 117 333 243
346 348 347 347 345 347 347 343 342 339 335 339 22 4 276 153 163 64 70 244 261 238 6 48 100 172 64 324 23 34 19 296 333 204 183 209 158 271 112 91 285 179 166 77 21 154 232
343 347 345 345 345 344 348 345 344 343 337 337 39 28 269 214 84 49 119 237 276 302 79 76 216 19 349 36 356 40 291 287 22 334 86 137 119 263 109 176 189 189 228 57 121 143 169
342 346 349 346 347 345 347 345 345 347 341 32 40 25 294 45 47 58 208 198 257 7 10 34 96 71 51 17 55 31 328 335 358 337 19 349 128 28 245 300 311 128 107 143 127 216 198
340 350 351 352 351 348 347 346 343 346 20 338 71 260 281 124 122 299 294 278 254 91 7 43 44 42 56 55 63 42 342 300 4 99 73 334 8 27 349 1 351 40 343 284 111 63 188
334 342 349 351 351 352 347 345 342 340 344 129 55 10 322 42 114 201 292 258 166 36 67 73 75 73 58 20 17 27 342 331 346 9 27 88 85 146 165 213 251 352 323 52 107 98 201
322 333 341 348 348 350 352 345 342 340 348 108 46 261 197 314 319 344 219 300 107 103 66 47 34 74 121 40 24 9 336 330 342 6 8 72 76 259 231 215 233 227 86 48 65 315 124
304 326 332 340 345 347 349 350 343 344 349 51 54 27 355 279 315 324 355 262 141 132 110 65 121 137 104 139 160 242 100 342 288 332 42 0 192 1 339 330 72 78 38 78 52 49 79
292 303 324 332 339 343 347 350 344 352 0 27 322 325 114 267 330 40 275 281 231 130 265 156 161 121 131 210 205 179 108 79 73 118 60 63 86 59 276 358 129 331 359 62 76 23 141
294 286 301 317 329 337 340 344 346 354 45 166 261 52 32 274 316 277 301 243 167 167 139 171 131 125 232 93 89 57 60 75 52 30 21 112 92 71 259 343 184 101 343 75 87 57 49
294 279 286 300 316 326 334 336 339 336 353 105 272 122 137 281 251 300 330 323 35 2 4 186 197 184 105 58 61 56 343 5 3 28 17 37 122 87 131 108 332 275 44 88 283 306 4
294 282 271 289 301 316 323 325 329 322 328 236 245 196 139 102 254 278 297 354 194 316 4 317 23 125 67 77 67 97 237 287 317 336 53 71 76 114 137 149 199 224 212 206 236 105 311
291 282 266 279 296 307 314 317 319 318 318 301 278 234 142 215 269 312 301 236 140 111 117 312 348 46 64 74 85 147 229 205 237 242 334 8 6 147 180 227 282 216 212 247 129 224 247
281 279 259 270 288 301 308 306 307 305 313 24 268 224 165 251 278 251 307 2 347 92 130 258 38 351 50 73 121 202 165 218 143 239 191 178 150 218 60 46 280 1 191 175 216 155 160
282 274 252 266 284 290 297 296 299 295 297 81 278 310 73 185 249 281 255 242 209 201 137 24 173 180 184 92 133 113 169 122 168 250 20 272 184 189 169 214 240 282 272 24 358 112 138